Hourly Weather Roundup
Issued by NWS Central Illinois

Home | Current Version | Previous Version | Text Only | Print | Product List | Glossary On
Versions: 1 2 3 4 5 6 7 8 9 10 11 12 13 14 15 16 17 18 19 20 21 22 23 24 25 26 27 28 29 30 31 32 33 34 35 36 37 38 39 40 41 42 43 44 45 46 47 48 49 50
000
NZUS43 KILX 040910
HWRILX

AREA WEATHER ROUNDUP
NATIONAL WEATHER SERVICE, LINCOLN IL
400 AM CDT TUE AUG 04 2015


CITY           SKY/WX    TMP DP  RH WIND       PRES   REMARKS
BLOOMINGTON    CLEAR     65  58  78 W3        29.97R
CHAMPAIGN      CLEAR     58  56  93 S3        29.95S
DANVILLE       CLEAR     55  55  98 CALM      29.92S
DECATUR        CLEAR     65  60  84 CALM      29.96R
EFFINGHAM      PTCLDY    68  63  82 CALM      29.97R
FLORA          PTCLDY    69  66  90 CALM      29.96R
GALESBURG      CLEAR     57  56  98 CALM      29.96S
JACKSONVILLE   PTCLDY    66  63  91 CALM      29.96R
LACON          CLEAR     58  56  91 CALM      29.94S
LAWRENCEVILLE  MOCLDY    72  66  81 CALM      29.95R
LITCHFIELD       N/A     71  60  69 CALM      29.97
$$


CITY           SKY/WX    TMP DP  RH WIND       PRES   REMARKS
LINCOLN        MOCLDY    64  60  86 CALM      29.96R
MACOMB         PTCLDY    58  58  97 CALM      29.98R
MATTOON        PTCLDY    65  59  81 CALM      29.95R
MT CARMEL AP   PTCLDY    72  66  83 CALM      29.95R
OLNEY-NOBLE AP PTCLDY    68  64  88 CALM      29.95S
PARIS          CLEAR     58  57  98 CALM      29.96R
PEORIA         CLEAR     63  58  83 CALM      29.96R
PONTIAC        CLEAR     60  58  92 CALM      29.95S
RANTOUL        CLEAR     65  58  76 NW7       29.94S
ROBINSON       PTCLDY    67  65  95 CALM      29.95S
SPRINGFIELD    CLEAR     62  60  93 CALM      29.96R
TAYLORVILLE    MOCLDY    64  63  94 CALM      29.96R
$$

...REGIONAL REPORTS...


CITY           SKY/WX    TMP DP  RH WIND       PRES   REMARKS
CHICAGO O`HARE CLEAR     63  55  75 W6        29.92R
KANKAKEE       CLEAR     60  57  88 W5        29.94S
MOLINE         CLEAR     59  55  87 CALM      29.95R
MOUNT STERLING NOT AVBL
MOUNT VERNON   PTCLDY    70  64  83 CALM      29.96R
PITTSFIELD     MOCLDY    69  65  86 CALM      29.98R
QUINCY         MOCLDY    68  59  73 CALM      29.96R
ROCKFORD       CLEAR     59  55  87 CALM      29.95R
$$


CITY           SKY/WX    TMP DP  RH WIND       PRES   REMARKS
BURLINGTON     MOCLDY    62  59  90 N6        29.95S
CEDAR RAPIDS   CLEAR     59  58  96 N6        29.95S
DES MOINES     MOCLDY    69  59  70 CALM      29.95R
KIRKSVILLE     CLOUDY    66  62  87 CALM      30.00R
OTTUMWA        CLOUDY    63  62  97 S3        29.95R
ST LOUIS       CLOUDY    77  65  66 NE5       29.95S
$$


CITY           SKY/WX    TMP DP  RH WIND       PRES   REMARKS
TERRE HAUTE    MOCLDY    62  60  93 CALM      29.95R
EVANSVILLE     PTCLDY    73  69  87 CALM      29.95R
INDIANAPOLIS   CLEAR     65  58  78 CALM      29.94R
LAFAYETTE      CLEAR     56  55  97 CALM      29.93F
MADISON        CLEAR     58  52  80 CALM      29.91S
MILWAUKEE      CLEAR     64  51  62 W6        29.91R
$$




USA.gov is the U.S. government's official web portal to all federal, state and local government web resources and services.